STARLINK-1402, 45685

Orbit data source: Space-Track

STARLINK-1402, 45685 is a payload satellite owned by SpaceX/Seattle (US) in LEO that was launched on Thu, 04 Jun 2020 UTC via an FALCON 9 launch vehicle from the Air Force Eastern Test Range (AFETR). Payload-class satellites include a variety of spacecraft equipped with specific instruments for various scientific and technological missions. These include communications satellites like Starlink; space stations such as the ISS; scientific satellites like the Hubble; Earth observation satellites from companies like Planet Labs, Umbra, and HawkEye 360; GPS; miniature CubeSats for education and research; and military/defense satellites.

Loading next visibility...
Identifier
45685, 2020-035AE
Orbit
LEO
Country
Flag of USUS
Related business
Manufacturer
SpaceX/Seattle
Mission
Operational Commercial Communications
Bus & Motor
STARLINK, Unknown motor
Mass
260 kg wet, ~248 kg dry
Launch date (UTC)
2020-06-04 (5 years ago)
Launch vehicle
FALCON 9
Launch site
Air Force Eastern Test Range (AFETR)
Object type
Payload
Rocket body
Debris
Shape & HBR
Box + 1 Pan, 4.4 m
Radar Cross Section
13.562 m², Large (>1 m²)

Expand to show TLE details & history
Last TLE update: 11 hours ago

TLE from 11 hours ago
0 STARLINK-1402
1 45685U 20035AE  25258.98257720  .00001093  00000-0  92247-4 0  9991
2 45685  53.0545 115.3303 0001430  91.5313 268.5840 15.06403959292624
Epoch: 2025-09-15T23:34Z
TLE epoch observation values (Epoch: 2025-09-15T23:34:54.67Z)
Latitude
0.00001°
Longitude
126.4231°
Altitude
548.103 km
Speed
7.589 km/s
True Right ascension
07h 41m 19s
True Declination
0° 00' 00"
Sunlit
Object was in daylight at epoch
Visualization orbit readout
Latitude
Unknown
Longitude
Unknown
Altitude
Unknown
Speed
Unknown
Apparent Right ascension
Unknown
Apparent Declination
Unknown
Sunlit
N/A
Visualization observer readout
Local Sidereal Time
03:40:07
Azimuth
Unknown
Elevation
Unknown
Doppler factor
Unknown
Orbital elements
Apogee altitude
548.461 km
Perigee altitude
546.48 km
Semi-major axis
6,925.607 km
Eccentricity
0.00014
Inclination
53.0545°
RAAN
115.3303°
Arg. of periapsis
91.5313°
True anomaly
268.56762°
Mean anomaly
268.584°
Eccentric anomaly
268.57581°
Mean motion
3.76579 °/min
Orbital period
95.6 mins
BSTAR
0.000092247
Loading maneuver chart data...
Computing Atmospheric mass density...

Documentation

Showing up to 5 results
|